Date String (YYYY-MM-DD hh:mm:ss) UTC,Instrument flags,absolute air pressure of the measurement (hPa),sample flow rate (lpm),inlet stack bypass flow (lpm),air temperature of the measurement (°C),ambient temperature measured by the external sensor (°C),aerosol sample conditioner tube jacket temperature (°C),OPC LED temperature (°C),internal box temperature (°C),relative humidity of the measurement (%),span deviation,mass concentration of particles derived from Lorenz-Mie calculation of OPC scattering (μg/m³),mass concentration of particles derived from Lorenz-Mie calculation of OPC scattering (μg/m³),mass concentration of particles derived from Lorenz-Mie calculation of OPC scattering (μg/m³)
DateTimeUTC,F1_M11,P_M11,Q1_M11,Q2_M11,T1_M11,T2_M11,T3_M11,T4_M11,T5_M11,U1_M11,ZSPAN_M11,X0_M11,X2_M11,X1_M11
2023-08-24 05:00:00,SystemResetWarning,0833.8,5.00,000.00,027.5,025.2,000.0,035.9,029.2,30.8,0001.5,0015.11,0007.56,0006.54
2023-08-24 05:01:00,SystemResetWarning,0833.7,5.01,000.00,027.5,025.6,000.0,035.9,029.3,30.6,0001.7,0014.91,0007.63,0006.57
2023-08-24 05:02:00,SystemResetWarning,0833.7,5.00,000.00,027.6,025.9,000.0,036.0,029.3,30.5,0001.8,0015.12,0007.69,0006.59
2023-08-24 05:03:00,SystemResetWarning,0833.8,5.00,000.00,027.6,026.2,000.0,036.0,029.4,30.3,0001.6,0014.55,0007.72,0006.59
2023-08-24 05:04:00,SystemResetWarning,0833.8,5.00,000.00,027.7,026.4,000.0,036.0,029.5,30.3,0001.6,0014.48,0007.71,0006.61
2023-08-24 05:05:00,SystemResetWarning,0833.7,5.00,000.00,027.7,026.6,000.0,036.0,029.6,30.3,0001.5,0014.48,0007.73,0006.62
2023-08-24 05:06:00,SystemResetWarning,0833.8,5.00,000.00,027.8,026.6,000.0,036.1,029.6,30.3,0001.4,0014.43,0007.75,0006.63
2023-08-24 05:07:00,SystemResetWarning,0833.7,4.98,000.00,027.8,025.2,000.0,035.9,029.3,30.2,0001.2,0014.32,0007.79,0006.63
2023-08-24 05:08:00,SystemResetWarning,0833.7,5.01,000.00,027.7,023.7,000.0,035.8,029.0,30.4,0001.3,0014.39,0007.86,0006.64
2023-08-24 05:09:00,SystemResetWarning,0833.7,5.01,000.00,027.6,023.6,000.0,035.8,028.9,30.5,0001.4,0014.01,0007.85,0006.63
2023-08-24 05:10:00,SystemResetWarning,0833.6,4.99,000.00,027.5,023.9,000.0,035.8,028.9,30.5,0001.3,0013.83,0007.85,0006.63
2023-08-24 05:11:00,SystemResetWarning,0833.7,5.00,000.00,027.5,024.4,000.0,035.9,029.0,30.5,0001.4,0013.38,0007.91,0006.65
2023-08-24 05:12:00,SystemResetWarning,0833.7,5.00,000.00,027.5,024.9,000.0,035.9,029.1,30.5,0001.4,0013.32,0007.93,0006.68
2023-08-24 05:13:00,SystemResetWarning,0833.7,5.01,000.00,027.5,025.3,000.0,035.9,029.2,30.4,0001.6,0013.70,0007.91,0006.70
2023-08-24 05:14:00,SystemResetWarning,0833.7,5.00,000.00,027.5,025.6,000.0,035.9,029.3,30.2,0001.9,0013.79,0007.95,0006.73
2023-08-24 05:15:00,SystemResetWarning,0833.7,5.00,000.00,027.6,025.9,000.0,036.0,029.4,30.1,0001.7,0013.95,0008.01,0006.76
2023-08-24 05:16:00,SystemResetWarning,0833.7,5.00,000.00,027.6,026.2,000.0,036.0,029.4,30.0,0001.7,0014.00,0008.02,0006.77
2023-08-24 05:17:00,SystemResetWarning,0833.8,5.00,000.00,027.7,026.4,000.0,036.0,029.5,30.0,0001.5,0014.41,0008.11,0006.80
2023-08-24 05:18:00,SystemResetWarning,0833.7,4.99,000.00,027.7,026.6,000.0,036.1,029.6,29.9,0001.2,0015.40,0008.16,0006.84
2023-08-24 05:19:00,SystemResetWarning,0833.7,5.01,000.00,027.8,026.7,000.0,036.1,029.6,29.8,0001.3,0015.88,0008.18,0006.87
2023-08-24 05:20:00,SystemResetWarning,0833.7,4.98,000.00,027.8,025.7,000.0,036.0,029.5,29.8,0001.5,0017.00,0008.19,0006.90
2023-08-24 05:21:00,SystemResetWarning,0833.7,5.00,000.00,027.7,024.0,000.0,035.9,029.1,29.9,0001.6,0017.16,0008.24,0006.94
2023-08-24 05:22:00,SystemResetWarning,0833.7,5.00,000.00,027.6,023.5,000.0,035.8,028.9,30.0,0001.7,0017.53,0008.25,0006.96
2023-08-24 05:23:00,SystemResetWarning,0833.7,5.00,000.00,027.5,023.8,000.0,035.8,028.9,30.2,0001.7,0017.52,0008.20,0006.96
2023-08-24 05:24:00,SystemResetWarning,0833.7,5.01,000.00,027.5,024.2,000.0,035.9,029.0,30.3,0001.7,0017.83,0008.22,0006.97
2023-08-24 05:25:00,SystemResetWarning,0833.7,5.00,000.00,027.5,024.6,000.0,035.9,029.1,30.3,0001.7,0018.41,0008.18,0006.98
2023-08-24 05:26:00,SystemResetWarning,0833.7,5.00,000.00,027.5,025.1,000.0,035.9,029.2,30.3,0001.8,0018.77,0008.20,0006.99
2023-08-24 05:27:00,SystemResetWarning,0833.7,5.00,000.00,027.5,025.5,000.0,036.0,029.3,30.2,0001.9,0018.79,0008.22,0007.00
2023-08-24 05:28:00,SystemResetWarning,0833.7,5.00,000.00,027.6,025.8,000.0,036.0,029.3,30.2,0001.9,0018.53,0008.13,0007.00
2023-08-24 05:29:00,SystemResetWarning,0833.7,5.00,000.00,027.6,026.1,000.0,036.0,029.4,30.1,0002.2,0017.88,0008.11,0007.00
2023-08-24 05:30:00,SystemResetWarning,0833.8,5.00,000.00,027.7,026.3,000.0,036.0,029.5,30.1,0002.4,0017.75,0008.10,0006.99
2023-08-24 05:31:00,SystemResetWarning,0833.8,5.01,000.00,027.7,026.5,000.0,036.0,029.6,30.0,0002.4,0016.57,0008.07,0006.98
2023-08-24 05:32:00,SystemResetWarning,0833.8,4.99,000.00,027.8,026.7,000.0,036.1,029.6,29.9,0002.4,0016.63,0008.04,0006.99
2023-08-24 05:33:00,SystemResetWarning,0833.8,4.99,000.00,027.8,026.3,000.0,036.0,029.6,29.9,0002.1,0016.35,0008.05,0006.99
2023-08-24 05:34:00,SystemResetWarning,0833.7,5.01,000.00,027.8,024.5,000.0,035.9,029.2,29.9,0001.9,0016.27,0008.06,0006.99
2023-08-24 05:35:00,SystemResetWarning,0833.7,5.00,000.00,027.6,023.5,000.0,035.8,028.9,30.1,0001.9,0015.71,0008.11,0007.00
2023-08-24 05:36:00,SystemResetWarning,0833.8,5.01,000.00,027.5,023.6,000.0,035.8,028.8,30.3,0001.5,0014.90,0008.16,0007.00
2023-08-24 05:37:00,SystemResetWarning,0833.8,5.01,000.00,027.5,024.0,000.0,035.9,028.9,30.5,0001.3,0014.53,0008.16,0007.02
2023-08-24 05:38:00,SystemResetWarning,0833.8,4.99,000.00,027.5,024.5,000.0,035.9,029.0,30.8,0001.2,0014.81,0008.13,0007.02
2023-08-24 05:39:00,SystemResetWarning,0833.8,5.00,000.00,027.5,024.9,000.0,035.9,029.1,30.8,0001.0,0015.25,0008.16,0007.04
2023-08-24 05:40:00,SystemResetWarning,0833.8,5.00,000.00,027.5,025.3,000.0,035.9,029.2,30.8,0001.2,0016.95,0008.18,0007.05
2023-08-24 05:41:00,SystemResetWarning,0833.8,5.00,000.00,027.5,025.7,000.0,036.0,029.3,31.0,0001.0,0017.35,0008.17,0007.05
2023-08-24 05:42:00,SystemResetWarning,0833.8,5.00,000.00,027.6,025.9,000.0,036.0,029.4,31.0,0000.7,0017.84,0008.19,0007.05
2023-08-24 05:43:00,SystemResetWarning,0833.8,5.00,000.00,027.6,026.2,000.0,036.0,029.4,31.0,0000.7,0017.90,0008.20,0007.06
2023-08-24 05:44:00,SystemResetWarning,0833.8,5.01,000.00,027.7,026.4,000.0,036.0,029.5,30.8,0000.6,0017.67,0008.21,0007.06
2023-08-24 05:45:00,SystemResetWarning,0833.8,5.00,000.00,027.7,026.6,000.0,036.1,029.6,30.8,0000.8,0017.64,0008.22,0007.06
2023-08-24 05:46:00,SystemResetWarning,0833.8,4.99,000.00,027.8,026.6,000.0,036.1,029.6,30.7,0000.8,0017.98,0008.17,0007.06
2023-08-24 05:47:00,SystemResetWarning,0833.8,5.01,000.00,027.8,025.1,000.0,036.0,029.4,30.8,0000.9,0018.51,0008.10,0007.04
2023-08-24 05:48:00,SystemResetWarning,0833.8,4.99,000.00,027.7,023.7,000.0,035.8,029.0,31.1,0001.1,0019.29,0008.05,0007.02
2023-08-24 05:49:00,SystemResetWarning,0833.8,5.00,000.00,027.6,023.5,000.0,035.8,028.9,31.5,0001.0,0019.18,0008.08,0007.01
2023-08-24 05:50:00,SystemResetWarning,0833.8,5.01,000.00,027.5,023.9,000.0,035.8,028.9,31.7,0001.5,0019.33,0008.14,0007.01
2023-08-24 05:51:00,SystemResetWarning,0833.8,5.00,000.00,027.5,024.3,000.0,035.9,029.0,31.8,0001.0,0018.05,0008.15,0006.99
2023-08-24 05:52:00,SystemResetWarning,0833.8,4.99,000.00,027.5,024.8,000.0,035.9,029.1,31.8,0001.1,0017.19,0008.13,0006.98
2023-08-24 05:53:00,SystemResetWarning,0833.8,5.00,000.00,027.5,025.2,000.0,035.9,029.2,31.9,0001.0,0017.42,0008.12,0006.98
2023-08-24 05:54:00,SystemResetWarning,0833.8,5.00,000.00,027.5,025.6,000.0,035.9,029.2,31.9,0000.8,0017.20,0008.13,0006.96
2023-08-24 05:55:00,SystemResetWarning,0833.8,5.00,000.00,027.6,025.9,000.0,036.0,029.3,31.8,0000.7,0017.31,0008.11,0006.93
2023-08-24 05:56:00,SystemResetWarning,0833.8,5.00,000.00,027.6,026.1,000.0,036.0,029.4,31.7,0000.8,0017.37,0008.10,0006.92
2023-08-24 05:57:00,SystemResetWarning,0833.8,5.00,000.00,027.7,026.4,000.0,036.0,029.5,31.7,0000.9,0017.45,0008.13,0006.91
2023-08-24 05:58:00,SystemResetWarning,0833.8,5.00,000.00,027.7,026.5,000.0,036.0,029.5,31.7,0000.6,0017.25,0008.15,0006.91
2023-08-24 05:59:00,SystemResetWarning,0833.8,5.00,000.00,027.8,026.7,000.0,036.1,029.6,31.5,0000.5,0016.86,0008.16,0006.90
